TIANMU-1 15

Last updated on Thu Oct 30 2025 00:02:23 GMT+0000 (Coordinated Universal Time)

1 58700U 24004A 25302.53966846 .00008658 00000+0 36188-3 0 9994 2 58700 97.4659 124.1874 0007814 86.5251 273.6880 15.23827233100614
UTC large
Height (km)
Speed (km/s)
/
Latitude / Longitude
Inclination (degrees)
Orbital Period (minutes)
Azimuth
Elevation
Range (km)
Doppler Factor

Next 0 passes for location: London (51.5072 / 0.1276)

Sorry there are no passes over London.